Previsão horária em Abbevillers

Hoje, 30 Setembro, Quarta-feira

Tempo Temperatura Precipitação Vento Pressão Humidade
00:00 +8°C° 0 mm 0 m/s 714 mmHg 93%
01:00 +8°C° 0 mm 0 m/s 714 mmHg 93%
02:00 +7°C° 0 mm 0 m/s 713 mmHg 93%
03:00 +7°C° 0 mm 0 m/s 713 mmHg 93%
04:00 +7°C° 0 mm 0 m/s 713 mmHg 93%
05:00 +7°C° 0 mm 0 m/s 713 mmHg 93%
06:00 +7°C° 0 mm 0 m/s 713 mmHg 93%
07:00 +11°C° 0 mm 1 m/s 713 mmHg 86%
08:00 +13°C° 0 mm 1 m/s 713 mmHg 80%
09:00 +15°C° 0 mm 1 m/s 713 mmHg 74%
10:00 +16°C° 0 mm 1 m/s 712 mmHg 70%
11:00 +18°C° 0 mm 1 m/s 712 mmHg 66%
12:00 +18°C° 0 mm 2 m/s 712 mmHg 62%
13:00 +19°C° 0 mm 1 m/s 711 mmHg 64%
14:00 +19°C° 0 mm 1 m/s 711 mmHg 66%
15:00 +19°C° 0 mm 1 m/s 711 mmHg 68%
16:00 +16°C° 0 mm 1 m/s 710 mmHg 75%
17:00 +14°C° 0 mm 1 m/s 710 mmHg 83%
18:00 +11°C° 0 mm 0 m/s 709 mmHg 90%
19:00 +11°C° 0 mm 0 m/s 709 mmHg 91%
20:00 +11°C° 0 mm 1 m/s 709 mmHg 91%
21:00 +11°C° 0 mm 1 m/s 709 mmHg 92%
22:00 +11°C° 0 mm 1 m/s 709 mmHg 92%
23:00 +10°C° 0 mm 1 m/s 708 mmHg 92%

Amanhã, 1 Outubro, Quinta-feira

Tempo Temperatura Precipitação Vento Pressão Humidade
00:00 +10°C° 0 mm 1 m/s 708 mmHg 92%
01:00 +10°C° 0 mm 1 m/s 708 mmHg 91%
02:00 +10°C° 0 mm 1 m/s 707 mmHg 90%
03:00 +10°C° 0 mm 1 m/s 707 mmHg 90%
04:00 +10°C° 0 mm 1 m/s 706 mmHg 89%
05:00 +10°C° 0 mm 1 m/s 706 mmHg 88%
06:00 +11°C° 0 mm 1 m/s 706 mmHg 88%
07:00 +13°C° 0 mm 1 m/s 706 mmHg 80%
08:00 +15°C° 0 mm 2 m/s 706 mmHg 72%
09:00 +17°C° 0 mm 2 m/s 706 mmHg 64%
10:00 +15°C° 0.2 mm 2 m/s 706 mmHg 71%
11:00 +13°C° 0.2 mm 3 m/s 706 mmHg 79%
12:00 +12°C° 0.2 mm 3 m/s 706 mmHg 86%
13:00 +12°C° 0.4 mm 3 m/s 706 mmHg 87%
14:00 +12°C° 0.4 mm 3 m/s 705 mmHg 88%
15:00 +12°C° 0.4 mm 3 m/s 705 mmHg 89%
16:00 +11°C° 0.1 mm 3 m/s 705 mmHg 91%
17:00 +12°C° 0.1 mm 2 m/s 705 mmHg 92%
18:00 +11°C° 0.1 mm 1 m/s 705 mmHg 93%
19:00 +11°C° 0 mm 1 m/s 705 mmHg 93%
20:00 +11°C° 0 mm 1 m/s 705 mmHg 93%
21:00 +11°C° 0 mm 1 m/s 705 mmHg 93%
22:00 +11°C° 0.3 mm 1 m/s 704 mmHg 93%
23:00 +11°C° 0.3 mm 1 m/s 703 mmHg 94%

Depois de amanhã, 2 Outubro, Sexta-feira

Tempo Temperatura Precipitação Vento Pressão Humidade
00:00 +11°C° 0.3 mm 1 m/s 703 mmHg 94%
01:00 +11°C° 0.1 mm 1 m/s 702 mmHg 95%
02:00 +10°C° 0.1 mm 2 m/s 701 mmHg 96%
03:00 +10°C° 0.1 mm 2 m/s 701 mmHg 97%
04:00 +10°C° 0.2 mm 2 m/s 700 mmHg 97%
05:00 +10°C° 0.2 mm 3 m/s 699 mmHg 96%
06:00 +10°C° 0.2 mm 3 m/s 698 mmHg 96%
07:00 +10°C° 0.2 mm 3 m/s 698 mmHg 95%
08:00 +11°C° 0.2 mm 4 m/s 697 mmHg 93%
09:00 +11°C° 0.2 mm 4 m/s 697 mmHg 92%
10:00 +12°C° 0.1 mm 4 m/s 696 mmHg 90%
11:00 +13°C° 0.1 mm 4 m/s 696 mmHg 88%
12:00 +13°C° 0.1 mm 4 m/s 695 mmHg 85%
13:00 +14°C° 0.1 mm 4 m/s 695 mmHg 85%
14:00 +14°C° 0.1 mm 3 m/s 694 mmHg 85%
15:00 +14°C° 0.1 mm 3 m/s 694 mmHg 86%
16:00 +13°C° 0 mm 3 m/s 694 mmHg 87%
17:00 +14°C° 0 mm 2 m/s 694 mmHg 89%
18:00 +13°C° 0 mm 2 m/s 694 mmHg 91%
19:00 +13°C° 0 mm 2 m/s 693 mmHg 91%
20:00 +12°C° 0 mm 1 m/s 693 mmHg 91%
21:00 +12°C° 0 mm 1 m/s 693 mmHg 92%
22:00 +12°C° 0 mm 1 m/s 693 mmHg 91%
23:00 +11°C° 0 mm 1 m/s 693 mmHg 91%

3 Outubro, Sábado

Tempo Temperatura Precipitação Vento Pressão Humidade
00:00 +11°C° 0 mm 1 m/s 692 mmHg 90%
01:00 +10°C° 0 mm 2 m/s 693 mmHg 92%
02:00 +9°C° 0 mm 3 m/s 693 mmHg 93%
03:00 +8°C° 0 mm 4 m/s 693 mmHg 94%
04:00 +7°C° 0.6 mm 4 m/s 694 mmHg 94%
05:00 +7°C° 0.6 mm 4 m/s 694 mmHg 94%
06:00 +6°C° 0.6 mm 4 m/s 695 mmHg 94%
07:00 +7°C° 2.5 mm 3 m/s 695 mmHg 94%
08:00 +7°C° 2.5 mm 3 m/s 696 mmHg 93%
09:00 +7°C° 2.5 mm 2 m/s 697 mmHg 93%
10:00 +7°C° 0.4 mm 2 m/s 697 mmHg 91%
11:00 +9°C° 0.4 mm 1 m/s 698 mmHg 89%
12:00 +10°C° 0.4 mm 1 m/s 698 mmHg 86%
13:00 +9°C° 0.5 mm 2 m/s 698 mmHg 87%
14:00 +9°C° 0.5 mm 2 m/s 698 mmHg 88%
15:00 +9°C° 0.5 mm 3 m/s 698 mmHg 89%
16:00 +8°C° 0 mm 3 m/s 698 mmHg 91%
17:00 +7°C° 0 mm 2 m/s 697 mmHg 92%
18:00 +6°C° 0 mm 2 m/s 697 mmHg 93%
19:00 +6°C° 0 mm 2 m/s 697 mmHg 92%
20:00 +5°C° 0 mm 2 m/s 696 mmHg 92%
21:00 +5°C° 0 mm 2 m/s 696 mmHg 91%
22:00 +6°C° 0.2 mm 2 m/s 696 mmHg 91%
23:00 +6°C° 0.2 mm 2 m/s 696 mmHg 92%

4 Outubro, Domingo

Tempo Temperatura Precipitação Vento Pressão Humidade
00:00 +5°C° 0.2 mm 3 m/s 696 mmHg 92%
01:00 +7°C° 0.2 mm 3 m/s 697 mmHg 92%
02:00 +6°C° 0.2 mm 4 m/s 697 mmHg 91%
03:00 +6°C° 0.2 mm 4 m/s 697 mmHg 91%
04:00 +6°C° 0.6 mm 5 m/s 698 mmHg 92%
05:00 +7°C° 0.6 mm 5 m/s 699 mmHg 92%
06:00 +7°C° 0.6 mm 5 m/s 699 mmHg 92%
07:00 +8°C° 0.1 mm 6 m/s 700 mmHg 86%
08:00 +9°C° 0.1 mm 6 m/s 700 mmHg 81%
09:00 +10°C° 0.1 mm 7 m/s 700 mmHg 75%
10:00 +11°C° 0 mm 7 m/s 701 mmHg 68%
11:00 +13°C° 0 mm 6 m/s 701 mmHg 61%
12:00 +15°C° 0 mm 6 m/s 701 mmHg 53%
13:00 +14°C° 0.1 mm 5 m/s 701 mmHg 59%
14:00 +13°C° 0.1 mm 4 m/s 701 mmHg 65%
15:00 +13°C° 0.1 mm 3 m/s 700 mmHg 71%
16:00 +11°C° 0.6 mm 3 m/s 701 mmHg 76%
17:00 +10°C° 0.6 mm 2 m/s 701 mmHg 81%
18:00 +10°C° 0.6 mm 1 m/s 701 mmHg 86%
19:00 +9°C° 0.2 mm 1 m/s 701 mmHg 87%
20:00 +9°C° 0.2 mm 1 m/s 702 mmHg 88%
21:00 +9°C° 0.2 mm 1 m/s 702 mmHg 89%
22:00 +9°C° 0.1 mm 1 m/s 702 mmHg 90%
23:00 +9°C° 0.1 mm 1 m/s 702 mmHg 90%

5 Outubro, Segunda-feira

Tempo Temperatura Precipitação Vento Pressão Humidade
00:00 +9°C° 0.1 mm 1 m/s 702 mmHg 91%
01:00 +8°C° 0 mm 1 m/s 702 mmHg 92%
02:00 +8°C° 0 mm 1 m/s 702 mmHg 93%
03:00 +7°C° 0 mm 1 m/s 702 mmHg 94%
04:00 +7°C° 0.1 mm 1 m/s 702 mmHg 94%
05:00 +7°C° 0.1 mm 1 m/s 702 mmHg 94%
06:00 +7°C° 0.1 mm 1 m/s 703 mmHg 94%
07:00 +8°C° 0 mm 1 m/s 703 mmHg 87%
08:00 +9°C° 0 mm 2 m/s 703 mmHg 80%
09:00 +12°C° 0 mm 2 m/s 703 mmHg 74%
10:00 +12°C° 0 mm 3 m/s 703 mmHg 68%
11:00 +13°C° 0 mm 3 m/s 702 mmHg 62%
12:00 +13°C° 0 mm 4 m/s 702 mmHg 57%
13:00 +13°C° 0.2 mm 3 m/s 702 mmHg 62%
14:00 +13°C° 0.2 mm 3 m/s 702 mmHg 68%
15:00 +12°C° 0.2 mm 3 m/s 702 mmHg 74%
16:00 +11°C° 0.1 mm 3 m/s 702 mmHg 77%
17:00 +10°C° 0.1 mm 3 m/s 702 mmHg 80%
18:00 +8°C° 0.1 mm 3 m/s 702 mmHg 83%
19:00 +8°C° 0 mm 3 m/s 702 mmHg 83%
20:00 +7°C° 0 mm 4 m/s 702 mmHg 83%
21:00 +7°C° 0 mm 4 m/s 702 mmHg 82%
22:00 +7°C° 0.1 mm 4 m/s 701 mmHg 83%
23:00 +7°C° 0.1 mm 4 m/s 701 mmHg 83%
Mostrar mais